{"data":{"norad_id":58913,"intl_designator":"2024-023J","name":"GEESAT-2 09","alt_names":[],"object_type":"PAYLOAD","status":"ACTIVE","operator":null,"country":"PRC","launch_date":"2024-02-02","launch_site_code":"XICLF","launch_vehicle":null,"mission":null,"orbit_class":"UNKNOWN","rcs_meters":null,"size_class":null,"mass_kg":null,"dimensions":null,"purposes":[],"wikipedia_slug":null,"has_3d_model":false,"image_url":null,"decayed_at":null,"tle_current":{"epoch":"2026-05-25T04:13:02.504352Z","epoch_age_seconds":53826,"freshness":"FRESH","line1":"1 58913U 24023J   26145.17572343  .00001391  00000+0  19587-3 0  9993","line2":"2 58913  50.0032 100.7242 0022231 279.8506  79.9922 14.83141971125501","mean_motion":14.83141971,"eccentricity":0.0022231,"inclination_deg":50.0032,"raan_deg":100.7242,"arg_perigee_deg":279.8506,"mean_anomaly_deg":79.9922,"bstar":0.00019587,"rev_number":12550,"period_min":97.091177254534,"perigee_km":603.86769402371,"apogee_km":634.98024961661,"semimajor_km":6997.5609718202,"source":"CELESTRAK","updated_at":"2026-05-25T13:38:01.076366Z"}}}